�������l�o���
Date,Time,MP-1(��Sv/h),MP-2(��Sv/h),MP-3(��Sv/h),MP-4(��Sv/h),MP-5(��Sv/h),MP-6(��Sv/h),MP-7(��Sv/h),MP-8(��Sv/h),����,����(m/s),���J
2021/01/24,00:00,0.666,0.953,0.607,1.203,0.851,0.380,0.670,0.631,�k��,10.6,��
2021/01/24,00:10,0.665,0.954,0.606,1.200,0.848,0.378,0.672,0.632,�k��,9.6,��
2021/01/24,00:20,0.663,0.952,0.606,1.199,0.849,0.378,0.671,0.631,�k�k��,9.6,��
2021/01/24,00:30,0.665,0.952,0.607,1.200,0.846,0.376,0.670,0.631,�k��,9.1,�L
2021/01/24,00:40,0.664,0.952,0.607,1.200,0.847,0.378,0.671,0.631,�k�k��,10.2,�L
2021/01/24,00:50,0.666,0.951,0.607,1.203,0.849,0.378,0.671,0.633,�k�k��,10.5,�L
2021/01/24,01:00,0.667,0.952,0.605,1.199,0.847,0.378,0.670,0.633,�k�k��,9.7,�L
2021/01/24,01:10,0.664,0.952,0.607,1.202,0.850,0.378,0.671,0.631,�k��,9.7,�L
2021/01/24,01:20,0.666,0.954,0.607,1.202,0.847,0.379,0.670,0.631,�k�k��,8.9,�L
2021/01/24,01:30,0.668,0.956,0.608,1.202,0.849,0.381,0.669,0.632,�k�k��,9.7,�L
2021/01/24,01:40,0.668,0.953,0.610,1.202,0.848,0.380,0.672,0.632,�k�k��,10.8,�L
2021/01/24,01:50,0.668,0.955,0.609,1.203,0.850,0.381,0.670,0.632,�k�k��,9.6,�L
2021/01/24,02:00,0.668,0.955,0.609,1.204,0.847,0.382,0.670,0.632,�k�k��,9.5,�L
2021/01/24,02:10,0.667,0.956,0.608,1.204,0.851,0.381,0.671,0.631,�k�k��,9.5,�L
2021/01/24,02:20,0.668,0.954,0.610,1.205,0.849,0.382,0.671,0.632,�k�k��,11.0,�L
2021/01/24,02:30,0.666,0.956,0.610,1.204,0.849,0.381,0.670,0.632,�k�k��,10.7,�L
2021/01/24,02:40,0.668,0.955,0.611,1.203,0.848,0.382,0.671,0.633,�k�k��,10.5,�L
2021/01/24,02:50,0.667,0.951,0.609,1.202,0.850,0.382,0.670,0.631,�k�k��,10.0,�L
2021/01/24,03:00,0.667,0.954,0.609,1.205,0.848,0.381,0.670,0.630,�k�k��,9.8,�L
2021/01/24,03:10,0.665,0.953,0.609,1.202,0.847,0.380,0.670,0.633,�k�k��,10.0,�L
2021/01/24,03:20,0.666,0.952,0.608,1.204,0.848,0.378,0.671,0.631,�k�k��,8.9,�L
2021/01/24,03:30,0.666,0.952,0.608,1.201,0.845,0.379,0.670,0.632,�k�k��,8.9,�L
2021/01/24,03:40,0.665,0.952,0.607,1.200,0.845,0.378,0.670,0.631,�k,9.6,��
2021/01/24,03:50,0.668,0.951,0.609,1.201,0.844,0.380,0.670,0.631,�k,8.5,��
2021/01/24,04:00,0.666,0.951,0.607,1.200,0.843,0.378,0.668,0.629,�k,9.3,��
2021/01/24,04:10,0.666,0.951,0.605,1.198,0.845,0.378,0.669,0.630,�k,9.2,��
2021/01/24,04:20,0.665,0.950,0.605,1.199,0.844,0.377,0.669,0.631,�k,8.4,��
2021/01/24,04:30,0.664,0.948,0.606,1.200,0.847,0.378,0.671,0.630,�k�k��,8.4,��
2021/01/24,04:40,0.663,0.948,0.606,1.198,0.843,0.377,0.670,0.630,�k,9.1,��
2021/01/24,04:50,0.664,0.949,0.606,1.199,0.843,0.376,0.668,0.631,�k,8.3,��
2021/01/24,05:00,0.666,0.949,0.605,1.198,0.843,0.377,0.671,0.630,�k,9.3,��
2021/01/24,05:10,0.663,0.949,0.605,1.200,0.844,0.376,0.670,0.632,�k�k��,10.0,��
2021/01/24,05:20,0.663,0.952,0.605,1.200,0.846,0.377,0.669,0.630,�k,8.8,��
2021/01/24,05:30,0.665,0.951,0.605,1.199,0.844,0.377,0.669,0.631,�k,7.6,��
2021/01/24,05:40,0.664,0.949,0.604,1.199,0.842,0.376,0.669,0.629,�k,6.9,��
2021/01/24,05:50,0.663,0.950,0.605,1.198,0.843,0.376,0.669,0.631,�k,7.2,��
2021/01/24,06:00,0.664,0.951,0.605,1.201,0.844,0.375,0.670,0.630,�k�k��,8.3,��
2021/01/24,06:10,0.664,0.951,0.604,1.198,0.843,0.376,0.669,0.631,�k�k��,7.8,��
2021/01/24,06:20,0.663,0.951,0.603,1.199,0.845,0.378,0.667,0.630,�k�k��,8.2,��
2021/01/24,06:30,0.664,0.950,0.605,1.199,0.842,0.377,0.668,0.631,�k�k��,8.0,��
2021/01/24,06:40,0.663,0.949,0.606,1.200,0.842,0.377,0.670,0.630,�k�k��,8.6,��
2021/01/24,06:50,0.664,0.947,0.604,1.200,0.842,0.377,0.669,0.629,�k�k��,8.2,�L
2021/01/24,07:00,0.663,0.950,0.605,1.200,0.845,0.376,0.668,0.631,�k�k��,7.7,�L
2021/01/24,07:10,0.664,0.951,0.604,1.197,0.844,0.378,0.669,0.630,�k�k��,8.3,�L
2021/01/24,07:20,0.664,0.951,0.604,1.201,0.843,0.377,0.670,0.631,�k�k��,8.0,��
2021/01/24,07:30,0.666,0.950,0.603,1.200,0.844,0.376,0.668,0.631,�k�k��,7.9,�L
2021/01/24,07:40,0.665,0.948,0.605,1.201,0.843,0.376,0.671,0.629,�k�k��,7.7,��
2021/01/24,07:50,0.663,0.951,0.606,1.201,0.846,0.379,0.670,0.631,�k�k��,7.5,��
2021/01/24,08:00,0.666,0.951,0.606,1.201,0.844,0.377,0.670,0.631,�k�k��,8.9,��
2021/01/24,08:10,0.665,0.951,0.606,1.200,0.844,0.376,0.669,0.629,�k�k��,9.3,�L
2021/01/24,08:20,0.664,0.951,0.605,1.200,0.845,0.376,0.671,0.629,�k�k��,8.3,�L
2021/01/24,08:30,0.664,0.951,0.606,1.199,0.845,0.377,0.668,0.630,�k�k��,9.1,�L
2021/01/24,08:40,0.664,0.953,0.605,1.199,0.844,0.378,0.669,0.630,�k�k��,8.7,�L
2021/01/24,08:50,0.666,0.951,0.603,1.200,0.843,0.377,0.670,0.631,�k�k��,8.0,�L
2021/01/24,09:00,0.665,0.952,0.607,1.200,0.845,0.377,0.670,0.632,�k�k��,7.9,�L
2021/01/24,09:10,0.664,0.951,0.604,1.203,0.847,0.377,0.669,0.632,�k�k��,9.7,�L
2021/01/24,09:20,0.665,0.952,0.605,1.200,0.844,0.378,0.670,0.632,�k��,7.9,�L
2021/01/24,09:30,0.663,0.952,0.606,1.200,0.848,0.376,0.671,0.630,�k��,7.9,�L
2021/01/24,09:40,0.664,0.953,0.605,1.201,0.846,0.376,0.668,0.630,�k��,9.5,�L
2021/01/24,09:50,0.664,0.952,0.607,1.202,0.845,0.376,0.669,0.631,�k�k��,9.2,�L
2021/01/24,10:00,0.665,0.954,0.606,1.201,0.846,0.378,0.670,0.630,�k�k��,9.2,�L
2021/01/24,10:10,0.666,0.952,0.606,1.203,0.846,0.379,0.670,0.632,�k�k��,9.2,�L
2021/01/24,10:20,0.665,0.952,0.606,1.203,0.844,0.379,0.670,0.631,�k��,9.0,�L
2021/01/24,10:30,0.665,0.953,0.606,1.199,0.846,0.378,0.669,0.631,�k��,9.6,�L
2021/01/24,10:40,0.666,0.952,0.606,1.201,0.844,0.377,0.670,0.629,�k�k��,9.0,�L
2021/01/24,10:50,0.664,0.950,0.605,1.202,0.844,0.378,0.670,0.630,�k��,9.5,�L
2021/01/24,11:00,0.663,0.947,0.604,1.199,0.844,0.379,0.668,0.631,�k��,9.6,�L
2021/01/24,11:10,0.664,0.947,0.603,1.200,0.843,0.378,0.671,0.630,�k�k��,8.9,�L
2021/01/24,11:20,0.666,0.947,0.603,1.200,0.844,0.378,0.669,0.630,�k�k��,8.5,�L
2021/01/24,11:30,0.665,0.946,0.602,1.199,0.843,0.377,0.669,0.630,�k��,9.3,�L
2021/01/24,11:40,0.664,0.946,0.603,1.200,0.842,0.377,0.668,0.631,�k�k��,8.8,�L
2021/01/24,11:50,0.663,0.946,0.605,1.198,0.842,0.377,0.669,0.631,�k�k��,8.1,�L
2021/01/24,12:00,0.664,0.949,0.606,1.200,0.841,0.377,0.668,0.630,�k�k��,8.4,�L
2021/01/24,12:10,0.663,0.946,0.605,1.199,0.842,0.377,0.668,0.630,�k�k��,8.5,�L
2021/01/24,12:20,0.664,0.947,0.604,1.198,0.840,0.378,0.669,0.632,�k�k��,8.8,�L
2021/01/24,12:30,0.665,0.944,0.604,1.198,0.842,0.379,0.668,0.631,�k�k��,9.1,�L
2021/01/24,12:40,0.661,0.946,0.603,1.200,0.842,0.378,0.669,0.630,�k��,8.8,�L
2021/01/24,12:50,0.664,0.949,0.604,1.199,0.839,0.377,0.669,0.630,�k�k��,8.0,�L
2021/01/24,13:00,0.664,0.946,0.602,1.199,0.841,0.376,0.669,0.630,�k�k��,8.2,�L
2021/01/24,13:10,0.663,0.946,0.603,1.199,0.839,0.378,0.669,0.631,�k��,9.7,�L
2021/01/24,13:20,0.663,0.945,0.604,1.199,0.843,0.379,0.669,0.628,�k�k��,8.5,�L
2021/01/24,13:30,0.664,0.946,0.604,1.197,0.843,0.378,0.668,0.631,�k�k��,8.7,�L
2021/01/24,13:40,0.664,0.947,0.602,1.196,0.842,0.375,0.669,0.630,�k�k��,7.3,��
2021/01/24,13:50,0.665,0.946,0.603,1.196,0.840,0.376,0.667,0.630,�k�k��,7.8,�L
2021/01/24,14:00,0.664,0.946,0.604,1.198,0.841,0.377,0.670,0.630,�k�k��,9.0,�L
2021/01/24,14:10,0.663,0.947,0.602,1.196,0.841,0.378,0.669,0.631,�k�k��,8.8,�L
2021/01/24,14:20,0.663,0.947,0.605,1.198,0.842,0.378,0.671,0.629,�k�k��,8.5,�L
2021/01/24,14:30,0.663,0.946,0.603,1.198,0.842,0.377,0.670,0.630,�k�k��,8.0,�L
2021/01/24,14:40,0.663,0.945,0.604,1.198,0.842,0.378,0.670,0.631,�k�k��,8.8,�L
2021/01/24,14:50,0.664,0.946,0.604,1.200,0.842,0.376,0.671,0.631,�k�k��,8.0,�L
2021/01/24,15:00,0.664,0.948,0.605,1.200,0.843,0.378,0.668,0.631,�k�k��,8.3,�L
2021/01/24,15:10,0.663,0.946,0.604,1.198,0.841,0.378,0.670,0.630,�k�k��,9.0,�L
2021/01/24,15:20,0.662,0.947,0.602,1.200,0.842,0.377,0.670,0.629,�k�k��,7.5,�L
2021/01/24,15:30,0.662,0.948,0.603,1.199,0.845,0.377,0.669,0.630,�k�k��,8.0,�L
2021/01/24,15:40,0.664,0.948,0.604,1.198,0.843,0.378,0.671,0.631,�k�k��,9.4,�L
2021/01/24,15:50,0.664,0.947,0.604,1.200,0.842,0.378,0.670,0.629,�k�k��,9.2,�L
2021/01/24,16:00,0.664,0.948,0.603,1.201,0.841,0.376,0.668,0.629,�k�k��,9.2,��
2021/01/24,16:10,0.664,0.947,0.603,1.197,0.842,0.376,0.669,0.631,�k�k��,8.3,��
2021/01/24,16:20,0.664,0.946,0.604,1.196,0.841,0.377,0.669,0.630,�k�k��,9.5,��
2021/01/24,16:30,0.662,0.948,0.605,1.200,0.843,0.376,0.668,0.631,�k�k��,8.8,��
2021/01/24,16:40,0.665,0.950,0.605,1.198,0.844,0.377,0.669,0.630,�k�k��,8.0,��
2021/01/24,16:50,0.662,0.948,0.603,1.198,0.841,0.376,0.669,0.630,�k�k��,8.6,��
2021/01/24,17:00,0.663,0.945,0.604,1.199,0.841,0.377,0.670,0.630,�k�k��,8.6,��
2021/01/24,17:10,0.663,0.948,0.604,1.198,0.841,0.376,0.669,0.630,�k�k��,7.2,��
2021/01/24,17:20,0.665,0.948,0.604,1.200,0.842,0.378,0.669,0.631,�k�k��,6.9,��
2021/01/24,17:30,0.662,0.948,0.604,1.199,0.842,0.376,0.669,0.629,�k�k��,7.4,��
2021/01/24,17:40,0.664,0.947,0.604,1.198,0.840,0.379,0.668,0.631,�k�k��,7.5,��
2021/01/24,17:50,0.662,0.949,0.605,1.198,0.842,0.377,0.668,0.628,�k�k��,7.2,��
2021/01/24,18:00,0.664,0.947,0.602,1.198,0.843,0.377,0.669,0.630,�k�k��,7.5,��
2021/01/24,18:10,0.663,0.948,0.604,1.198,0.844,0.376,0.668,0.629,�k�k��,7.3,��
2021/01/24,18:20,0.664,0.946,0.605,1.199,0.843,0.378,0.669,0.631,�k�k��,7.4,��
2021/01/24,18:30,0.664,0.947,0.603,1.198,0.842,0.377,0.669,0.631,�k�k��,6.9,��
2021/01/24,18:40,0.664,0.947,0.603,1.198,0.841,0.378,0.670,0.630,�k�k��,7.8,��
2021/01/24,18:50,0.663,0.948,0.604,1.199,0.842,0.376,0.670,0.630,�k�k��,7.7,��
2021/01/24,19:00,0.662,0.948,0.604,1.199,0.842,0.376,0.669,0.630,�k�k��,7.3,��
2021/01/24,19:10,0.664,0.949,0.604,1.198,0.842,0.379,0.667,0.631,�k�k��,7.3,��
2021/01/24,19:20,0.662,0.948,0.604,1.198,0.844,0.377,0.669,0.628,�k�k��,8.4,��
2021/01/24,19:30,0.664,0.949,0.604,1.198,0.842,0.377,0.668,0.630,�k�k��,7.4,��
2021/01/24,19:40,0.663,0.950,0.603,1.199,0.844,0.378,0.669,0.630,�k�k��,7.5,��
2021/01/24,19:50,0.666,0.948,0.605,1.198,0.843,0.376,0.670,0.631,�k�k��,7.7,��
2021/01/24,20:00,0.664,0.948,0.605,1.199,0.843,0.377,0.669,0.630,�k�k��,6.9,��
2021/01/24,20:10,0.661,0.947,0.604,1.199,0.844,0.378,0.670,0.631,�k�k��,6.5,��
2021/01/24,20:20,0.663,0.949,0.604,1.197,0.843,0.377,0.669,0.629,�k�k��,7.2,��
2021/01/24,20:30,0.662,0.949,0.604,1.198,0.844,0.377,0.668,0.629,�k�k��,7.1,��
2021/01/24,20:40,0.665,0.949,0.606,1.200,0.842,0.377,0.669,0.630,�k�k��,6.7,��
2021/01/24,20:50,0.664,0.948,0.604,1.200,0.842,0.377,0.669,0.631,�k�k��,7.3,��
2021/01/24,21:00,0.666,0.947,0.603,1.198,0.844,0.377,0.666,0.630,�k�k��,6.4,��
2021/01/24,21:10,0.663,0.950,0.605,1.200,0.843,0.377,0.668,0.630,�k�k��,6.7,��
2021/01/24,21:20,0.665,0.949,0.604,1.197,0.843,0.375,0.669,0.632,�k�k��,6.9,��
2021/01/24,21:30,0.663,0.950,0.604,1.198,0.844,0.378,0.670,0.628,�k�k��,7.1,��
2021/01/24,21:40,0.664,0.949,0.605,1.199,0.843,0.377,0.669,0.631,�k�k��,6.8,��
2021/01/24,21:50,0.663,0.948,0.602,1.199,0.842,0.377,0.670,0.630,�k�k��,7.7,��
2021/01/24,22:00,0.663,0.948,0.605,1.200,0.842,0.377,0.669,0.629,�k�k��,7.5,��
2021/01/24,22:10,0.664,0.951,0.604,1.200,0.842,0.377,0.668,0.629,�k�k��,7.2,��
2021/01/24,22:20,0.662,0.947,0.605,1.198,0.842,0.378,0.669,0.630,�k�k��,8.1,��
2021/01/24,22:30,0.663,0.948,0.603,1.198,0.841,0.377,0.670,0.631,�k�k��,7.1,��
2021/01/24,22:40,0.662,0.947,0.605,1.198,0.843,0.377,0.669,0.631,�k�k��,7.4,��
2021/01/24,22:50,0.662,0.948,0.604,1.198,0.843,0.378,0.669,0.629,�k�k��,7.4,��
2021/01/24,23:00,0.664,0.950,0.602,1.200,0.844,0.377,0.669,0.630,�k�k��,7.3,��
2021/01/24,23:10,0.663,0.947,0.605,1.199,0.842,0.377,0.668,0.630,�k�k��,6.4,��
2021/01/24,23:20,0.662,0.950,0.604,1.199,0.841,0.377,0.670,0.631,�k�k��,7.8,��
2021/01/24,23:30,0.664,0.949,0.603,1.199,0.841,0.378,0.670,0.630,�k�k��,8.0,��
2021/01/24,23:40,0.665,0.949,0.604,1.198,0.844,0.376,0.669,0.629,�k�k��,7.1,��
2021/01/24,23:50,0.664,0.947,0.603,1.197,0.843,0.377,0.671,0.631,�k�k��,6.5,��
